Dewpoint
48 47 47 47 46 46 46 46 45 45 45 44 44 44 43 43 44 41 36 37 48 45 41 34 32 34 35 39 41 43 35 31 33 32 34 39 39 40 41 36 37 50 54 58 66
47 47 47 46 46 46 46 46 45 45 44 44 44 43 44 44 41 36 40 42 39 41 37 33 32 35 33 36 38 36 33 30 32 34 36 40 41 43 43 39 40 46 47 62 66
47 47 46 46 46 46 46 46 46 45 44 44 44 44 42 44 35 31 39 38 36 37 34 35 36 34 33 34 36 34 32 34 35 34 39 37 40 46 45 42 45 46 47 51 63
47 47 46 46 46 46 46 46 46 45 44 43 44 44 43 40 18 30 40 39 37 36 33 33 35 34 33 33 33 32 33 34 36 37 38 37 44 44 45 46 49 49 50 52 61
47 46 45 45 45 46 46 46 45 44 43 42 44 43 42 30 28 35 40 36 32 32 32 33 35 35 33 33 34 32 34 36 37 38 39 39 40 44 45 49 50 49 50 55 58
47 46 45 45 45 45 46 45 43 42 41 42 44 43 37 21 29 35 35 31 30 31 31 34 33 36 35 33 34 36 35 35 35 37 40 37 40 41 44 50 49 48 49 51 56
46 45 44 44 45 46 45 42 39 40 41 42 42 38 35 25 33 34 34 26 27 32 31 34 37 33 34 33 36 34 33 35 34 34 36 39 36 41 43 47 46 48 48 50 52
45 44 43 44 45 45 39 36 38 38 41 40 42 38 26 32 34 30 25 25 32 38 34 36 37 35 35 35 34 32 34 29 32 34 35 37 31 38 45 44 44 46 48 49 52
44 44 43 44 45 41 37 37 37 38 37 42 35 33 16 23 21 23 25 25 31 38 38 36 35 32 30 29 25 29 25 26 30 33 35 36 32 41 45 44 44 45 47 48 53
44 44 43 44 45 39 35 37 35 31 30 30 28 20 17 19 24 25 24 25 25 35 31 32 31 28 25 28 18 22 24 29 28 30 34 35 34 37 41 42 43 45 47 47 51
44 43 44 44 45 38 32 30 23 10 29 24 24 24 22 25 26 23 28 29 27 26 25 31 25 21 23 26 29 25 26 27 28 28 28 32 33 35 41 41 41 45 47 47 49
43 43 44 44 44 38 32 32 34 34 23 27 28 29 27 30 22 22 31 30 27 25 26 24 20 24 26 27 28 27 25 23 25 27 29 30 31 34 38 39 40 44 46 47 48
43 43 44 44 43 37 31 31 36 36 26 19 16 24 17 20 19 22 30 28 28 25 26 24 22 25 26 28 24 25 24 23 23 25 28 30 27 32 37 37 40 45 47 47 47
42 43 45 41 25 35 28 34 36 28 4 -1 11 15 17 18 15 18 30 31 28 25 28 24 25 24 22 24 27 18 24 27 26 23 23 30 20 29 36 37 41 45 46 46 46
42 44 45 39 31 29 29 33 35 21 -20 4 12 18 19 13 14 12 26 26 28 23 27 18 22 23 21 22 26 22 32 29 27 24 25 27 23 24 35 36 41 44 45 44 47
43 44 42 37 29 32 32 32 20 -4 -22 9 13 14 16 15 12 14 24 18 26 16 10 21 23 26 24 25 24 32 31 30 27 25 18 22 23 21 31 33 40 42 43 45 48
43 43 31 34 26 32 34 23 -4 -14 10 4 10 14 16 13 9 10 22 16 11 -1 -1 11 13 26 26 22 27 29 25 17 16 16 14 26 24 24 25 29 39 42 43 44 49
42 38 29 29 32 34 21 4 -14 10 12 11 11 15 13 13 10 9 19 17 16 10 7 5 8 17 23 25 23 25 26 17 8 12 18 29 22 19 20 24 30 44 45 44 46
38 31 22 27 32 27 12 1 9 13 12 10 14 12 12 14 10 9 11 15 18 13 10 9 10 16 26 25 25 20 19 28 18 19 19 22 25 26 25 27 28 41 45 46 47
32 27 18 28 28 18 12 14 13 14 13 13 10 12 12 11 9 9 7 16 12 15 17 14 12 16 24 25 26 22 26 22 20 13 10 20 21 19 24 26 27 29 34 45 47
26 15 18 27 22 16 8 13 17 13 15 13 10 11 12 10 11 10 7 14 14 14 15 19 18 14 20 25 23 20 18 25 24 21 17 16 16 25 26 26 28 29 31 34 46
23 -2 24 21 7 14 14 17 18 13 15 14 14 13 11 10 10 8 10 12 16 14 11 22 18 14 19 23 27 25 26 26 20 19 22 18 17 27 26 27 28 29 32 38 46
19 16 22 16 -6 10 16 15 16 14 14 13 13 14 13 12 8 7 11 12 15 15 17 21 13 11 9 21 24 20 22 26 26 26 22 18 17 27 28 26 27 29 30 39 48
17 2 18 21 19 17 12 13 12 16 15 14 14 14 14 12 11 11 11 13 14 16 21 21 17 15 12 16 22 17 18 23 23 21 23 22 24 25 26 25 25 29 29 33 48
22 20 21 12 15 16 14 15 13 12 15 14 12 13 15 13 11 10 12 14 15 17 18 21 15 16 17 21 22 20 19 20 21 24 23 24 23 25 26 24 24 28 29 30 33
17 20 23 21 19 14 11 12 13 15 15 12 13 14 15 14 12 11 13 15 15 17 17 18 14 18 15 22 20 15 16 22 20 18 26 26 22 25 29 24 22 26 27 28 29
29 27 19 21 13 7 10 13 13 17 13 16 15 14 15 15 17 18 19 19 19 19 17 17 16 15 11 16 21 14 14 17 18 18 19 17 20 24 24 25 21 24 26 26 27
Wind_Speed
18 19 19 20 21 21 22 23 23 22 22 22 22 22 21 20 18 7 6 6 6 5 10 12 11 12 6 4 5 2 12 10 11 17 13 8 15 9 3 4 2 3 3 7 19
18 19 21 21 22 23 23 23 23 22 21 21 21 19 20 16 12 7 7 15 11 7 6 11 17 8 6 4 5 8 12 18 7 16 9 6 10 9 7 11 7 6 17 10 22
18 20 21 22 23 23 23 23 22 21 21 21 18 17 15 10 5 5 12 16 18 13 6 7 10 7 7 9 7 6 19 12 17 14 9 14 17 2 2 7 3 5 19 16 26
19 20 22 23 24 24 25 24 22 22 21 19 15 14 11 4 5 6 16 16 18 11 7 8 9 8 7 10 16 12 16 22 14 15 9 14 6 6 7 3 4 9 14 13 31
20 22 23 24 25 25 25 24 23 22 20 14 10 9 4 6 3 9 16 19 15 8 7 7 6 6 8 9 14 16 10 9 14 22 15 13 16 1 8 9 11 11 16 10 17
21 22 24 26 27 26 26 25 24 23 14 8 4 4 4 8 5 9 16 16 7 3 6 4 4 4 5 7 7 3 5 15 15 14 9 15 10 6 6 11 11 12 17 11 6
21 22 24 25 27 27 28 26 23 18 10 3 5 4 2 3 7 16 15 9 5 3 5 4 3 3 3 7 13 3 5 10 11 11 7 5 8 10 6 8 16 10 12 15 11
21 22 23 24 24 25 29 29 18 9 10 2 4 3 3 6 15 14 9 10 3 3 3 4 2 2 3 5 5 1 3 4 5 11 8 6 7 11 11 9 18 8 9 14 11
21 22 22 22 21 20 31 24 12 8 6 7 4 3 5 14 21 17 6 10 6 3 5 2 3 2 5 5 4 6 5 6 8 9 7 11 2 5 10 10 18 6 7 10 8
20 22 22 20 18 16 32 11 8 6 9 2 3 3 10 18 15 15 9 9 3 3 4 6 5 5 3 4 2 0 4 4 6 7 7 11 4 9 11 7 23 3 1 8 10
21 22 21 19 14 13 19 6 8 6 12 4 7 3 12 17 9 16 12 14 4 5 6 4 5 8 6 1 3 1 5 6 3 5 3 12 13 13 11 5 11 11 5 3 9
22 22 21 19 6 10 11 8 4 2 3 4 6 7 12 5 6 15 17 8 6 7 7 7 4 9 4 1 4 2 3 4 9 5 4 2 15 11 17 14 7 19 12 8 5
22 22 20 21 2 6 9 8 3 6 2 7 6 5 15 8 7 16 19 12 5 8 10 3 7 14 5 2 5 3 3 3 3 12 3 4 3 11 11 12 18 17 13 10 7
21 19 17 18 4 6 3 9 4 5 4 14 12 7 14 15 5 11 9 4 6 9 9 3 8 10 8 3 2 1 5 3 3 2 2 4 3 7 13 17 19 19 17 14 8
21 17 13 10 3 3 8 10 4 3 4 21 9 7 18 14 10 12 15 8 6 11 5 7 9 12 6 4 2 3 5 6 4 6 7 2 2 2 11 16 19 18 12 9 15
20 13 11 5 3 1 11 2 3 4 5 9 9 15 17 13 13 13 12 13 2 5 7 6 8 4 4 12 3 3 5 5 5 4 3 5 2 2 2 9 12 14 16 16 12
17 7 7 3 9 13 5 2 4 8 8 12 10 14 10 15 11 15 10 21 18 14 19 12 7 4 6 6 5 5 3 4 3 3 4 2 1 4 13 11 13 21 21 17 17
14 4 5 5 11 3 3 5 12 4 4 7 10 13 8 15 9 16 10 9 12 8 4 10 8 9 16 5 5 5 4 2 4 8 4 3 4 1 10 16 8 22 26 22 18
5 3 5 16 11 1 7 12 3 2 7 9 11 6 8 9 8 11 9 8 7 12 10 10 7 9 5 10 4 3 4 3 4 1 2 1 2 4 25 27 26 2 14 20 15
3 2 8 22 10 7 11 5 2 2 6 4 7 6 8 11 13 10 5 4 8 10 2 2 9 4 10 7 1 3 2 4 3 3 3 2 2 4 23 24 23 18 8 10 14
4 3 7 17 6 14 9 3 2 6 7 5 4 4 3 7 7 5 5 3 8 13 7 2 2 8 7 6 5 5 3 3 2 1 2 5 4 6 11 13 17 18 14 11 12
3 4 10 9 8 5 4 2 4 5 6 5 2 4 3 7 6 4 5 4 6 15 7 3 3 8 7 11 10 3 4 3 3 3 2 1 2 9 11 11 12 16 17 10 11
4 2 7 6 5 5 2 2 0 5 5 5 5 5 4 5 6 4 6 5 9 12 6 7 3 9 7 5 6 5 7 13 7 4 2 2 1 12 15 18 17 17 23 18 9
4 3 8 10 3 6 2 3 5 4 2 3 1 4 11 4 3 8 8 5 19 6 6 4 3 5 5 12 8 11 14 11 7 4 5 3 1 18 23 24 23 25 26 26 1
6 3 1 5 8 7 2 2 5 6 3 4 2 6 6 5 6 4 5 12 8 5 6 3 4 3 14 14 15 10 8 8 3 7 4 6 5 10 14 16 18 21 26 26 24
4 5 4 4 3 3 5 3 5 5 3 5 2 12 7 6 6 12 11 4 5 7 8 6 4 7 5 4 10 14 21 11 8 11 5 6 4 15 8 12 25 25 24 23 23
3 2 6 2 3 2 1 2 2 3 3 6 6 10 10 11 12 19 17 18 17 9 5 6 6 8 6 8 4 4 16 13 5 14 8 6 9 17 12 15 24 22 21 21 21
Wind_Direction
2 358 354 353 351 348 344 343 340 337 335 332 331 334 335 331 333 331 306 255 299 287 330 324 330 323 331 249 244 260 247 238 215 219 237 194 216 211 231 248 267 254 287 288 157
2 356 354 351 349 348 344 340 338 337 335 333 335 338 338 343 333 341 287 314 338 3 346 332 315 335 312 267 245 214 235 254 247 235 241 245 209 192 182 208 254 342 334 190 163
360 356 351 349 347 344 341 339 337 336 336 336 337 339 342 350 358 332 339 348 352 8 343 317 297 304 251 229 225 228 249 281 274 258 261 255 253 309 204 190 84 334 317 295 169
359 355 351 348 345 343 338 336 336 334 334 331 333 343 351 23 40 295 330 339 335 334 337 338 337 327 279 260 223 252 239 247 269 276 265 242 254 249 228 123 31 326 312 269 176
358 355 350 347 343 341 335 334 335 334 333 331 331 356 27 20 294 281 321 329 320 334 326 332 1 354 301 315 279 226 260 287 262 254 276 264 229 232 278 352 355 349 353 252 212
356 353 350 347 342 339 334 336 338 340 341 341 11 66 59 27 295 304 320 324 320 329 311 329 320 211 282 299 281 359 290 269 267 270 285 236 235 205 12 355 353 3 354 340 240
354 352 350 347 344 339 334 338 341 346 1 355 110 79 59 303 314 319 318 312 299 287 304 300 339 320 316 319 332 324 325 310 243 227 247 264 258 219 184 347 317 332 355 1 342
352 350 351 348 346 339 332 338 347 347 348 40 100 54 303 275 305 320 321 329 3 17 264 347 329 288 271 299 299 146 166 273 250 203 211 177 259 218 156 242 287 301 359 5 1
352 349 351 351 348 343 329 345 6 17 14 124 33 30 23 329 350 329 324 321 323 338 4 14 16 337 337 339 352 33 299 249 306 221 170 182 253 145 146 153 264 271 14 8 15
350 348 350 351 349 348 329 353 16 40 9 66 69 2 334 332 325 321 326 325 313 328 336 12 360 349 26 6 265 173 276 286 191 14 199 185 184 170 191 162 258 228 39 27 11
350 348 350 351 349 358 345 12 18 11 33 58 312 287 300 315 314 354 343 339 7 42 2 1 350 342 312 49 317 294 345 322 335 13 1 213 221 185 184 121 280 244 178 157 353
350 347 347 351 2 22 9 67 96 180 350 330 301 283 293 291 313 343 354 19 12 355 349 357 327 330 313 327 348 198 297 307 306 2 337 340 225 211 169 169 261 222 191 173 40
350 347 346 349 100 31 57 40 323 131 58 328 303 314 340 340 340 345 1 333 8 355 345 298 287 319 254 283 350 249 212 272 293 341 306 321 279 204 181 173 201 225 208 164 152
349 347 349 350 56 345 41 342 59 122 74 357 348 8 346 326 10 342 347 344 357 342 343 306 316 347 340 255 157 261 252 245 267 351 280 345 228 210 185 185 195 183 184 177 164
347 346 357 37 334 38 309 315 122 67 31 326 337 318 339 37 305 335 339 2 18 332 359 337 333 341 339 2 281 294 20 218 202 163 348 282 270 222 188 200 186 178 176 158 187
346 350 359 26 30 319 317 167 64 43 6 338 348 340 358 360 343 326 8 13 51 358 353 291 297 313 310 312 278 103 4 89 108 85 286 256 193 304 238 232 186 169 170 182 160
341 357 36 53 327 319 313 33 29 55 332 335 331 334 340 354 340 0 2 38 41 8 355 330 333 333 346 338 30 45 49 103 110 161 216 316 303 360 336 334 188 183 179 171 165
340 38 27 89 328 305 42 39 62 284 329 314 324 328 10 12 345 346 10 30 34 35 317 357 340 14 340 7 310 341 11 113 157 174 151 129 214 60 354 354 332 190 179 179 176
355 9 24 345 350 82 67 50 120 279 319 312 330 13 348 355 346 357 8 16 34 30 17 351 294 329 293 327 307 325 339 4 109 184 116 134 352 234 2 6 11 137 175 186 179
56 43 8 342 359 59 70 110 122 359 319 331 15 22 338 331 342 352 347 16 354 20 190 282 294 294 314 324 230 298 360 325 27 133 126 91 73 345 347 343 347 358 356 206 183
62 48 341 348 42 54 79 87 36 356 1 1 349 323 334 323 306 305 313 346 360 345 348 318 260 296 327 27 13 1 356 1 355 38 94 159 110 7 336 338 337 329 319 299 201
71 31 345 11 39 44 63 46 15 344 359 29 60 60 17 310 297 302 310 279 44 346 340 314 290 293 288 285 290 302 337 20 310 355 312 20 74 30 358 354 351 331 331 311 192
72 355 345 48 70 61 17 43 13 12 18 27 27 14 32 298 311 284 315 294 3 346 352 345 344 334 2 26 31 16 348 11 315 294 274 149 165 22 5 10 3 1 2 4 165
87 25 17 48 66 100 112 8 353 350 132 6 80 42 354 321 278 302 305 308 330 331 355 348 245 229 271 282 299 296 302 337 316 324 339 60 64 358 4 1 353 9 9 11 200
43 82 84 36 39 79 76 335 360 10 10 9 77 20 350 295 303 269 283 315 321 1 4 37 280 243 281 286 281 255 322 324 292 318 354 27 86 5 3 355 3 13 12 13 15
105 133 69 93 89 57 17 1 4 333 324 342 346 323 309 237 234 285 305 300 285 326 355 356 293 335 309 340 66 50 23 25 25 355 22 96 77 1 350 357 24 16 8 4 5
114 87 112 13 88 105 306 314 3 330 282 264 302 315 306 271 267 274 270 259 259 298 310 336 332 341 296 323 336 32 6 14 64 24 338 18 333 337 335 355 26 8 0 353 353